Change the Weather History Date:

Monday, April 29, 2013

  Actual Average Record
Temperature  
Mean Temperature 60 °F 51 °F  
Max Temperature 65 °F 61 °F 85 °F (1986)
Min Temperature 55 °F 40 °F 24 °F (1934)
Degree Days  
Heating Degree Days 5 15  
Month to date heating degree days 599 597  
Since 1 July heating degree days 6465 7061  
Cooling Degree Days 0 0  
Month to date cooling degree days 0 0  
Year to date cooling degree days 0 0  
Growing Degree Days 9 (Base 50)    
Moisture  
Dew Point 38 °F    
Average Humidity 49    
Maximum Humidity 61    
Minimum Humidity 36    
Precipitation  
Precipitation T in 0.11 in 0.76 in (1956)
Month to date precipitation 2.05 2.72  
Year to date precipitation 6.53 8.76  
Snow  
Snow 0.00 in 0.00 in 0.70 in (1966)
Month to date snowfall 1.0 4.5  
Since 1 July snowfall 82.9 81.1  
Snow Depth 0.00 in    
Sea Level Pressure  
Sea Level Pressure 30.16 in    
Wind  
Wind Speed 10 mph (South)    
Max Wind Speed 18 mph    
Max Gust Speed 26 mph    
Visibility 10 miles    
Events Rain    
T = Trace of Precipitation, MM = Missing Value Source: NWS Daily Summary

Daily Weather History Graph

Daily Weather History Graph

Search for Another Location

Airport or City:

Trip Planner

Search our weather history database for the weather conditions in past years. The results will help you decide how hot, cold, wet, or windy it might be!

Date:

Astronomy

Apr. 29, 2013 Rise Set
Actual Time 5:45 AM EDT 7:54 PM EDT
Civil Twilight 5:14 AM EDT 8:26 PM EDT
Nautical Twilight 4:34 AM EDT 9:06 PM EDT
Astronomical Twilight 3:51 AM EDT 9:49 PM EDT
Moon No Moon Rise 8:59 AM EDT (4/29)
Length of Visible Light 15h 12m
Length of Day
14h 09m
Waning Gibbous, 80% of the Moon is Illuminated
Apr 29
Waning Gibbous
May 2
Last Quarter
May 9
New
May 18
First Quarter
May 25
Full

Hourly Weather History & Observations

Time (EDT) Temp. Dew Point Humidity Pressure Visibility Wind Dir Wind Speed Gust Speed Precip Events Conditions
12:54 AM 60.1 °F 34.0 °F 38% 30.13 in 10.0 mi South 5.8 mph - N/A   Clear
1:54 AM 60.1 °F 35.1 °F 39% 30.14 in 10.0 mi South 9.2 mph - N/A   Clear
2:54 AM 57.9 °F 36.0 °F 44% 30.14 in 10.0 mi South 8.1 mph - N/A   Clear
3:54 AM 57.0 °F 36.0 °F 45% 30.14 in 10.0 mi South 6.9 mph - N/A   Clear
4:54 AM 55.9 °F 36.0 °F 47% 30.14 in 10.0 mi South 5.8 mph - N/A   Clear
5:54 AM 55.0 °F 35.1 °F 47% 30.15 in 10.0 mi South 8.1 mph - N/A   Clear
6:54 AM 57.0 °F 33.1 °F 40% 30.17 in 10.0 mi South 10.4 mph - N/A   Clear
7:54 AM 57.9 °F 34.0 °F 41% 30.18 in 10.0 mi South 10.4 mph 19.6 mph N/A   Mostly Cloudy
8:54 AM 59.0 °F 33.1 °F 38% 30.18 in 10.0 mi South 15.0 mph - N/A   Mostly Cloudy
9:54 AM 61.0 °F 34.0 °F 36% 30.18 in 10.0 mi South 13.8 mph 19.6 mph N/A   Mostly Cloudy
10:54 AM 61.0 °F 36.0 °F 39% 30.17 in 10.0 mi South 13.8 mph - N/A   Mostly Cloudy
11:54 AM 63.0 °F 35.1 °F 35% 30.16 in 10.0 mi South 16.1 mph - N/A   Mostly Cloudy
12:54 PM 64.0 °F 37.0 °F 37% 30.15 in 10.0 mi South 16.1 mph 23.0 mph N/A   Mostly Cloudy
1:54 PM 63.0 °F 42.1 °F 46% 30.15 in 10.0 mi South 10.4 mph 19.6 mph 0.00 in Rain Light Rain
2:54 PM 64.0 °F 41.0 °F 43% 30.14 in 10.0 mi SSW 12.7 mph 21.9 mph 0.00 in   Overcast
3:54 PM 62.1 °F 41.0 °F 46% 30.14 in 10.0 mi SW 13.8 mph 25.3 mph N/A   Overcast
4:54 PM 62.1 °F 42.1 °F 48% 30.14 in 10.0 mi SSW 11.5 mph 20.7 mph N/A   Overcast
5:54 PM 61.0 °F 43.0 °F 52% 30.15 in 10.0 mi SSW 11.5 mph 24.2 mph N/A   Overcast
6:54 PM 60.1 °F 43.0 °F 53% 30.16 in 10.0 mi SSW 13.8 mph 19.6 mph N/A   Overcast
7:54 PM 59.0 °F 43.0 °F 55% 30.16 in 10.0 mi South 6.9 mph - N/A   Overcast
8:54 PM 57.0 °F 42.1 °F 57% 30.17 in 10.0 mi South 5.8 mph - N/A   Scattered Clouds
9:54 PM 55.9 °F 41.0 °F 57% 30.18 in 10.0 mi SSE 5.8 mph - N/A   Clear
10:54 PM 57.0 °F 42.1 °F 57% 30.18 in 10.0 mi South 9.2 mph 18.4 mph N/A   Scattered Clouds
11:54 PM 55.9 °F 42.1 °F 60% 30.19 in 10.0 mi South 6.9 mph - N/A   Scattered Clouds